Regional Weather Roundup
Issued by NWS Portland, ME

Home | Current Version | Previous Version | Text Only | Print | Product List | Glossary On
Versions: 1 2 3 4 5 6 7 8 9 10 11 12 13 14 15 16 17 18 19 20 21 22 23 24 25 26 27 28 29 30 31 32 33 34 35 36 37 38 39 40 41 42 43 44 45 46 47 48 49 50
000
ASUS41 KGYX 221005
RWRGYX
WEATHER ROUNDUP FOR MAINE AND NEW HAMPSHIRE
NATIONAL WEATHER SERVICE GRAY ME
600 AM EDT FRI AUG 22 2014

MEZ002-005-006-010-012-015-018-020-021-024-026-027-029-221100-
MAINE

CITY           SKY/WX    TMP DP  RH WIND       PRES   REMARKS
PORTLAND       CLOUDY    63  60  90 NE5       30.12R
SANFORD        CLOUDY    61  55  82 N7        30.12R
BAR HARBOR     CLOUDY    61  61 100 N3        30.13S
WISCASSET      CLOUDY    61  59  93 CALM      30.13R
ROCKLAND       CLOUDY    63  59  88 NE6       30.12R
FRYEBURG       CLOUDY    61  59  93 CALM      30.14R
LEWISTONAUBURN CLOUDY    61  57  88 N3        30.13R
AUGUSTA        CLOUDY    61  59  93 N5        30.14R
WATERVILLE     CLOUDY    61  59  94 N6        30.11R
BANGOR         CLOUDY    63  58  83 NE5       30.15R
GREENVILLE       N/A     59  56  89 CALM      30.15R
MILLINOCKET    CLOUDY    63  58  83 E3        30.17R
HOULTON        CLOUDY    59  55  87 CALM      30.17R
PRESQUE ISLE   PTCLDY    54  50  87 CALM      30.18R
FRENCHVILLE    CLOUDY    57  56  96 E6        30.19R
CARIBOU        CLOUDY    56  54  93 E3        30.18R
$$

NHZ002-005-008-009-011-012-014-221100-
NEW HAMPSHIRE

CITY           SKY/WX    TMP DP  RH WIND       PRES   REMARKS
PORTSMOUTH     CLOUDY    61  60  95 N8        30.10R FOG
ROCHESTER      CLOUDY    60  57  89 CALM      30.11R
NASHUA         CLOUDY    59  59 100 CALM      30.11S
MANCHESTER     LGT RAIN  59  57  93 N5        30.09S FOG
CONCORD        LGT RAIN  56  56 100 N6        30.12R FOG
LACONIA        CLOUDY    59  55  88 CALM      30.12R
PLYMOUTH       RAIN      57  57 100 CALM      30.13R
BERLIN         CLOUDY    56  55  97 CALM      30.14R
WHITEFIELD     CLOUDY    57  56  96 CALM      30.13R FOG
JAFFREY        LGT RAIN  57  56  96 CALM      30.13R
LEBANON        RAIN      58  56  93 NE5       30.12R FOG
MT WASHINGTON  FOG       45  45 100 SE18        N/A  VSB 0
$$

VTZ005-007-008-221100-
VERMONT

CITY           SKY/WX    TMP DP  RH WIND       PRES   REMARKS
ST JOHNSBURY     N/A     58  57  97 MISG      30.11R
MONTPELIER     LGT RAIN  57  55  93 S3        30.15S
BURLINGTON     LGT RAIN  62  59  90 SE6       30.06R
$$

MAZ007-012-024-CTZ003-RIZ002-NYZ038-NYZ072-221100-
SOUTHERN NEW ENGLAND AND NY

CITY           SKY/WX    TMP DP  RH WIND       PRES   REMARKS
BOSTON         CLOUDY    63  61  93 NW9       30.09R
WORCESTER      CLOUDY    59  58  96 NE6       30.10S FOG
NANTUCKET      PTCLDY    59  58  96 MISG      30.05R
PROVIDENCE     CLOUDY    64  62  93 N8        30.08R
HARTFORD       CLOUDY    66  62  87 E3        30.06R
ALBANY         CLOUDY    66  64  93 SE7       30.02R
NEW YORK CITY  PTCLDY    68  64  87 E6        30.00S
$$

ANZ081-ANZ082-ANZ150-NHZ014-MEZ023>029-221100-
COASTAL MARINE OBSERVATIONS

STATION/POSITION TIME  TEMP    WIND        PRES    WAVE
                       AIR SEA DIR/SP/G            HT/PER
                 (UTC) (F)     (DEG/KT/KT) (MB)    (FT/S)
MATINICUS ROCK   0900           50/ 14/ 15 1018.8R
PORTLAND WX BUOY 0950   63 64   60/ 10/ 12 1019.5R   2/ 7
WELLS            0900   62 62  360/  5/  7 1018.3R
ISLE OF SHOALS   0900   63      10/ 11/ 12 1018.1F
JEFFREYS LEDGE   0921      67                N/A     2/ 6
CASHES LEDGE BUO 0950   65 66              1018.6R   2/ 7
$$

.............KEY..............
   WCI - WIND CHILL
   TC  - TEMPERATURE IN CELSIUS
   VSB - VISIBILITY IN MILES
   HX  - HEAT INDEX
   FAIR- INDICATES FEW OR NO CLOUDS BELOW 12,000 FT, WITH NO
         SIGNIFICANT WEATHER AND/OR OBSTRUCTIONS TO VISIBILITY.




USA.gov is the U.S. government's official web portal to all federal, state and local government web resources and services.